Time,TemperatureF,DewpointF,PressureIn,WindDirection,WindDirectionDegrees,WindSpeedMPH,WindSpeedGustMPH,Humidity,HourlyPrecipIn,Conditions,Clouds,dailyrainin,SoftwareType,DateUTC
2013-01-16 00:00:00,25.0,12.6,28.94,West,270,0.0,0.0,55,0.00,,,0.00,WSDL version 420,2013-01-16 05:00:00,
2013-01-16 00:02:00,25.0,12.6,28.94,West,270,0.0,0.0,55,0.00,,,0.00,WSDL version 420,2013-01-16 05:02:00,
2013-01-16 00:03:00,25.0,12.6,28.94,West,270,0.0,0.0,55,0.00,,,0.00,WSDL version 420,2013-01-16 05:03:00,
2013-01-16 00:05:00,25.0,12.6,28.94,West,270,0.0,0.0,55,0.00,,,0.00,WSDL version 420,2013-01-16 05:05:00,
2013-01-16 00:10:00,25.0,12.6,28.94,West,270,0.0,0.0,55,0.00,,,0.00,WSDL version 420,2013-01-16 05:10:00,
2013-01-16 00:16:00,25.0,12.6,28.94,West,270,0.0,0.0,55,0.00,,,0.00,WSDL version 420,2013-01-16 05:16:00,
2013-01-16 00:21:00,25.0,12.6,28.94,West,270,0.0,0.0,55,0.00,,,0.00,WSDL version 420,2013-01-16 05:21:00,
2013-01-16 00:26:00,24.9,12.5,28.94,West,270,0.0,0.0,55,0.00,,,0.00,WSDL version 420,2013-01-16 05:26:00,
2013-01-16 00:32:00,24.8,12.5,28.94,West,270,0.0,0.0,55,0.00,,,0.00,WSDL version 420,2013-01-16 05:32:00,
2013-01-16 00:37:00,24.8,12.7,28.94,West,270,0.0,0.0,56,0.00,,,0.00,WSDL version 420,2013-01-16 05:37:00,
2013-01-16 00:43:00,24.8,12.8,28.94,West,270,0.0,0.0,56,0.00,,,0.00,WSDL version 420,2013-01-16 05:43:00,
2013-01-16 00:49:00,24.8,12.8,28.94,West,270,0.0,0.0,56,0.00,,,0.00,WSDL version 420,2013-01-16 05:49:00,
2013-01-16 00:54:00,24.8,13.0,28.94,West,270,0.0,0.0,57,0.00,,,0.00,WSDL version 420,2013-01-16 05:54:00,
2013-01-16 01:00:00,24.8,13.1,28.94,NW,315,0.0,0.0,56,0.00,,,0.00,WSDL version 420,2013-01-16 06:00:00,
2013-01-16 01:06:00,24.8,12.8,28.94,NW,315,0.0,0.0,56,0.00,,,0.00,WSDL version 420,2013-01-16 06:06:00,
2013-01-16 01:12:00,24.8,13.2,28.91,NW,315,0.0,0.0,57,0.00,,,0.00,WSDL version 420,2013-01-16 06:12:00,
2013-01-16 01:17:00,24.8,13.2,28.91,NW,315,0.0,0.0,57,0.00,,,0.00,WSDL version 420,2013-01-16 06:17:00,
2013-01-16 01:22:00,24.8,13.2,28.91,NW,315,0.0,0.0,57,0.00,,,0.00,WSDL version 420,2013-01-16 06:22:00,
2013-01-16 01:27:00,24.8,13.1,28.91,NW,315,0.0,0.0,57,0.00,,,0.00,WSDL version 420,2013-01-16 06:27:00,
2013-01-16 01:32:00,24.7,13.2,28.91,NW,315,0.0,0.0,58,0.00,,,0.00,WSDL version 420,2013-01-16 06:32:00,
2013-01-16 01:37:00,24.7,13.4,28.91,NW,315,0.0,0.0,58,0.00,,,0.00,WSDL version 420,2013-01-16 06:37:00,
2013-01-16 01:42:00,24.7,13.4,28.91,NW,315,0.0,0.0,58,0.00,,,0.00,WSDL version 420,2013-01-16 06:42:00,
2013-01-16 01:48:00,24.7,13.4,28.91,NW,315,0.0,0.0,58,0.00,,,0.00,WSDL version 420,2013-01-16 06:48:00,
2013-01-16 01:53:00,24.7,13.4,28.91,NW,315,0.0,0.0,58,0.00,,,0.00,WSDL version 420,2013-01-16 06:53:00,
2013-01-16 01:59:00,24.5,13.2,28.91,NW,315,0.0,0.0,58,0.00,,,0.00,WSDL version 420,2013-01-16 06:59:00,
2013-01-16 02:05:00,24.5,13.2,28.91,NW,315,0.0,0.0,58,0.00,,,0.00,WSDL version 420,2013-01-16 07:05:00,
2013-01-16 02:10:00,24.5,13.2,28.91,NW,315,0.0,0.0,58,0.00,,,0.00,WSDL version 420,2013-01-16 07:10:00,
2013-01-16 02:15:00,24.4,13.1,28.91,NW,315,0.0,0.0,58,0.00,,,0.00,WSDL version 420,2013-01-16 07:15:00,
2013-01-16 02:21:00,24.3,13.0,28.91,NW,315,0.0,0.0,58,0.00,,,0.00,WSDL version 420,2013-01-16 07:21:00,
2013-01-16 02:26:00,24.3,13.0,28.91,NW,315,0.0,0.0,58,0.00,,,0.00,WSDL version 420,2013-01-16 07:26:00,
2013-01-16 02:32:00,24.3,13.0,28.91,NW,315,0.0,0.0,58,0.00,,,0.00,WSDL version 420,2013-01-16 07:32:00,
2013-01-16 02:38:00,24.3,13.0,28.91,NW,315,0.0,0.0,58,0.00,,,0.00,WSDL version 420,2013-01-16 07:38:00,
2013-01-16 02:43:00,24.3,13.1,28.88,NW,315,0.0,0.0,59,0.00,,,0.00,WSDL version 420,2013-01-16 07:43:00,
2013-01-16 02:48:00,24.2,13.3,28.88,NW,315,0.0,0.0,59,0.00,,,0.00,WSDL version 420,2013-01-16 07:48:00,
2013-01-16 02:53:00,24.1,13.2,28.88,NW,315,0.0,0.0,59,0.00,,,0.00,WSDL version 420,2013-01-16 07:53:00,
2013-01-16 02:58:00,24.1,13.2,28.88,NW,315,0.0,0.0,59,0.00,,,0.00,WSDL version 420,2013-01-16 07:58:00,
2013-01-16 03:03:00,24.1,13.4,28.88,NW,315,0.0,0.0,60,0.00,,,0.00,WSDL version 420,2013-01-16 08:03:00,
2013-01-16 03:08:00,24.0,13.4,28.88,NW,315,0.0,0.0,60,0.00,,,0.00,WSDL version 420,2013-01-16 08:08:00,
2013-01-16 03:14:00,24.1,13.5,28.88,NW,315,0.0,0.0,60,0.00,,,0.00,WSDL version 420,2013-01-16 08:14:00,
2013-01-16 03:20:00,24.1,13.5,28.88,NW,315,0.0,0.0,60,0.00,,,0.00,WSDL version 420,2013-01-16 08:20:00,
2013-01-16 03:26:00,24.1,13.5,28.88,NW,315,0.0,0.0,60,0.00,,,0.00,WSDL version 420,2013-01-16 08:26:00,
2013-01-16 03:32:00,23.9,13.4,28.88,NW,315,0.0,0.0,60,0.00,,,0.00,WSDL version 420,2013-01-16 08:32:00,
2013-01-16 03:37:00,23.9,13.4,28.88,NW,315,0.0,0.0,60,0.00,,,0.00,WSDL version 420,2013-01-16 08:37:00,
2013-01-16 03:42:00,23.9,13.6,28.88,NW,315,0.0,0.0,61,0.00,,,0.00,WSDL version 420,2013-01-16 08:42:00,
2013-01-16 03:48:00,23.8,13.5,28.88,NW,315,0.0,0.0,61,0.00,,,0.00,WSDL version 420,2013-01-16 08:48:00,
2013-01-16 03:54:00,23.8,13.5,28.88,NW,315,0.0,0.0,61,0.00,,,0.00,WSDL version 420,2013-01-16 08:54:00,
2013-01-16 04:00:00,23.6,13.6,28.88,NW,315,0.0,0.0,62,0.00,,,0.00,WSDL version 420,2013-01-16 09:00:00,
2013-01-16 04:06:00,23.6,13.7,28.88,NW,315,0.0,0.0,62,0.00,,,0.00,WSDL version 420,2013-01-16 09:06:00,
2013-01-16 04:11:00,23.6,13.9,28.85,NW,315,0.0,0.0,63,0.00,,,0.00,WSDL version 420,2013-01-16 09:11:00,
2013-01-16 04:16:00,23.6,14.0,28.85,NW,315,0.0,0.0,63,0.00,,,0.00,WSDL version 420,2013-01-16 09:16:00,
2013-01-16 04:22:00,23.6,14.3,28.85,NW,315,0.0,0.0,64,0.00,,,0.00,WSDL version 420,2013-01-16 09:22:00,
2013-01-16 04:27:00,23.6,14.5,28.85,NW,315,0.0,0.0,65,0.00,,,0.00,WSDL version 420,2013-01-16 09:27:00,
2013-01-16 04:32:00,23.6,14.7,28.85,NW,315,0.0,0.0,65,0.00,,,0.00,WSDL version 420,2013-01-16 09:32:00,
2013-01-16 04:37:00,23.6,14.7,28.85,NW,315,0.0,0.0,66,0.00,,,0.00,WSDL version 420,2013-01-16 09:37:00,
2013-01-16 04:43:00,23.6,15.0,28.85,NW,315,0.0,0.0,66,0.00,,,0.00,WSDL version 420,2013-01-16 09:43:00,
2013-01-16 04:49:00,23.6,15.0,28.85,NW,315,0.0,0.0,66,0.00,,,0.00,WSDL version 420,2013-01-16 09:49:00,
2013-01-16 04:54:00,23.6,15.2,28.85,NW,315,0.0,0.0,67,0.00,,,0.00,WSDL version 420,2013-01-16 09:54:00,
2013-01-16 05:00:00,23.6,15.3,28.82,NW,315,0.0,0.0,67,0.00,,,0.00,WSDL version 420,2013-01-16 10:00:00,
2013-01-16 05:05:00,23.8,15.6,28.82,NW,315,0.0,0.0,68,0.00,,,0.00,WSDL version 420,2013-01-16 10:05:00,
2013-01-16 05:11:00,23.8,15.8,28.82,NW,315,0.0,0.0,68,0.00,,,0.00,WSDL version 420,2013-01-16 10:11:00,
2013-01-16 05:16:00,23.9,15.9,28.82,NW,315,0.0,0.0,68,0.00,,,0.00,WSDL version 420,2013-01-16 10:16:00,
2013-01-16 05:21:00,24.0,15.9,28.82,NW,315,0.0,0.0,67,0.00,,,0.00,WSDL version 420,2013-01-16 10:21:00,
2013-01-16 05:26:00,24.1,15.9,28.82,NW,315,0.0,0.0,68,0.00,,,0.00,WSDL version 420,2013-01-16 10:26:00,
2013-01-16 05:31:00,24.2,16.2,28.82,NW,315,0.0,0.0,68,0.00,,,0.00,WSDL version 420,2013-01-16 10:31:00,
2013-01-16 05:36:00,24.3,16.3,28.82,NW,315,0.0,0.0,68,0.00,,,0.00,WSDL version 420,2013-01-16 10:36:00,
2013-01-16 05:41:00,24.3,16.3,28.85,NW,315,0.0,0.0,68,0.00,,,0.00,WSDL version 420,2013-01-16 10:41:00,
2013-01-16 05:47:00,24.4,16.6,28.85,NW,315,0.0,0.0,69,0.00,,,0.00,WSDL version 420,2013-01-16 10:47:00,
2013-01-16 05:52:00,24.5,16.7,28.85,NW,315,0.0,0.0,69,0.00,,,0.00,WSDL version 420,2013-01-16 10:52:00,
2013-01-16 05:58:00,24.5,16.7,28.85,NW,315,0.0,0.0,69,0.00,,,0.00,WSDL version 420,2013-01-16 10:58:00,
2013-01-16 06:04:00,24.4,16.7,28.85,NW,315,0.0,0.0,69,0.00,,,0.00,WSDL version 420,2013-01-16 11:04:00,
2013-01-16 06:10:00,24.5,16.7,28.85,NW,315,0.0,0.0,68,0.00,,,0.00,WSDL version 420,2013-01-16 11:10:00,
2013-01-16 06:16:00,24.4,16.4,28.82,NW,315,0.0,0.0,68,0.00,,,0.00,WSDL version 420,2013-01-16 11:16:00,
2013-01-16 06:22:00,24.5,16.5,28.82,NW,315,0.0,0.0,69,0.00,,,0.00,WSDL version 420,2013-01-16 11:22:00,
2013-01-16 06:28:00,24.5,16.7,28.82,NW,315,0.0,0.0,69,0.00,,,0.00,WSDL version 420,2013-01-16 11:28:00,
2013-01-16 06:33:00,24.3,16.6,28.82,NW,315,0.0,0.0,69,0.00,,,0.00,WSDL version 420,2013-01-16 11:33:00,
2013-01-16 06:38:00,24.3,16.6,28.82,NW,315,0.0,0.0,69,0.00,,,0.00,WSDL version 420,2013-01-16 11:38:00,
2013-01-16 06:44:00,24.2,16.5,28.85,NW,315,0.0,0.0,69,0.00,,,0.00,WSDL version 420,2013-01-16 11:44:00,
2013-01-16 06:50:00,24.1,16.4,28.85,NW,315,0.0,0.0,69,0.00,,,0.00,WSDL version 420,2013-01-16 11:50:00,
2013-01-16 06:55:00,23.9,16.2,28.85,NW,315,0.0,0.0,69,0.00,,,0.00,WSDL version 420,2013-01-16 11:55:00,
2013-01-16 07:01:00,23.9,16.2,28.82,NW,315,0.0,0.0,69,0.00,,,0.00,WSDL version 420,2013-01-16 12:01:00,
2013-01-16 07:07:00,23.8,16.4,28.82,NW,315,0.0,0.0,70,0.00,,,0.00,WSDL version 420,2013-01-16 12:07:00,
2013-01-16 07:13:00,23.8,16.3,28.85,NW,315,0.0,0.0,70,0.00,,,0.00,WSDL version 420,2013-01-16 12:13:00,
2013-01-16 07:18:00,23.8,16.3,28.85,NW,315,0.0,0.0,70,0.00,,,0.00,WSDL version 420,2013-01-16 12:18:00,
2013-01-16 07:24:00,23.7,16.6,28.85,NW,315,0.0,0.0,71,0.00,,,0.00,WSDL version 420,2013-01-16 12:24:00,
2013-01-16 07:30:00,23.8,16.6,28.82,NW,315,0.0,0.0,71,0.00,,,0.00,WSDL version 420,2013-01-16 12:30:00,
2013-01-16 07:36:00,23.7,16.8,28.82,NW,315,0.0,0.0,72,0.00,,,0.00,WSDL version 420,2013-01-16 12:36:00,
2013-01-16 07:41:00,23.6,16.8,28.82,NW,315,0.0,0.0,73,0.00,,,0.00,WSDL version 420,2013-01-16 12:41:00,
2013-01-16 07:46:00,23.6,17.0,28.82,NW,315,0.0,0.0,73,0.00,,,0.00,WSDL version 420,2013-01-16 12:46:00,
2013-01-16 07:52:00,23.6,17.0,28.82,NW,315,0.0,0.0,73,0.00,,,0.00,WSDL version 420,2013-01-16 12:52:00,
2013-01-16 07:57:00,23.6,17.3,28.82,NW,315,0.0,0.0,74,0.00,,,0.00,WSDL version 420,2013-01-16 12:57:00,
2013-01-16 08:03:00,23.6,17.4,28.82,NW,315,0.0,0.0,75,0.00,,,0.00,WSDL version 420,2013-01-16 13:03:00,
2013-01-16 08:09:00,23.6,17.6,28.82,NW,315,0.0,0.0,75,0.00,,,0.00,WSDL version 420,2013-01-16 13:09:00,
2013-01-16 08:14:00,23.6,17.7,28.82,NW,315,0.0,0.0,76,0.00,,,0.00,WSDL version 420,2013-01-16 13:14:00,
2013-01-16 08:20:00,23.6,17.9,28.82,NW,315,0.0,0.0,76,0.00,,,0.00,WSDL version 420,2013-01-16 13:20:00,
2013-01-16 08:26:00,23.6,18.1,28.82,NW,315,0.0,0.0,77,0.00,,,0.00,WSDL version 420,2013-01-16 13:26:00,
2013-01-16 08:32:00,23.6,18.1,28.82,NW,315,0.0,0.0,77,0.00,,,0.00,WSDL version 420,2013-01-16 13:32:00,
2013-01-16 08:37:00,23.6,18.2,28.82,NW,315,0.0,0.0,78,0.00,,,0.00,WSDL version 420,2013-01-16 13:37:00,
2013-01-16 08:42:00,23.6,18.4,28.82,NW,315,0.0,0.0,78,0.00,,,0.00,WSDL version 420,2013-01-16 13:42:00,
2013-01-16 08:48:00,23.8,18.8,28.82,NW,315,0.0,0.0,79,0.00,,,0.00,WSDL version 420,2013-01-16 13:48:00,
2013-01-16 08:53:00,24.0,19.1,28.82,WNW,293,0.0,0.0,79,0.00,,,0.00,WSDL version 420,2013-01-16 13:53:00,
2013-01-16 08:58:00,24.2,19.5,28.82,WNW,293,0.0,0.0,80,0.00,,,0.00,WSDL version 420,2013-01-16 13:58:00,
2013-01-16 09:04:00,24.4,19.8,28.82,WNW,285,0.0,0.0,80,0.00,,,0.00,WSDL version 420,2013-01-16 14:04:00,
2013-01-16 09:10:00,24.5,19.8,28.82,West,270,0.0,0.0,80,0.00,,,0.00,WSDL version 420,2013-01-16 14:10:00,
2013-01-16 09:16:00,24.6,19.9,28.82,West,270,0.0,0.0,80,0.00,,,0.00,WSDL version 420,2013-01-16 14:16:00,
2013-01-16 09:21:00,24.7,20.1,28.82,West,270,0.0,0.0,80,0.00,,,0.00,WSDL version 420,2013-01-16 14:21:00,
2013-01-16 09:26:00,24.7,20.1,28.82,West,270,0.0,0.0,80,0.00,,,0.00,WSDL version 420,2013-01-16 14:26:00,
2013-01-16 09:32:00,24.9,20.2,28.82,WSW,248,0.0,0.0,80,0.00,,,0.00,WSDL version 420,2013-01-16 14:32:00,
2013-01-16 09:37:00,25.0,20.3,28.82,West,270,0.0,0.0,80,0.00,,,0.00,WSDL version 420,2013-01-16 14:37:00,
2013-01-16 09:42:00,25.2,20.4,28.79,West,270,0.0,0.0,79,0.00,,,0.00,WSDL version 420,2013-01-16 14:42:00,
2013-01-16 09:47:00,25.2,20.2,28.79,West,270,0.0,0.0,79,0.00,,,0.00,WSDL version 420,2013-01-16 14:47:00,
2013-01-16 09:52:00,25.2,20.0,28.79,West,265,0.0,0.0,78,0.00,,,0.00,WSDL version 420,2013-01-16 14:52:00,
2013-01-16 09:57:00,25.2,19.8,28.82,West,270,0.0,0.0,77,0.00,,,0.00,WSDL version 420,2013-01-16 14:57:00,
2013-01-16 10:02:00,25.2,19.5,28.82,West,270,0.0,0.0,76,0.00,,,0.00,WSDL version 420,2013-01-16 15:02:00,
2013-01-16 10:08:00,25.4,19.2,28.82,West,270,0.0,0.0,74,0.00,,,0.00,WSDL version 420,2013-01-16 15:08:00,
2013-01-16 10:14:00,25.5,18.8,28.79,West,265,0.0,0.0,72,0.00,,,0.00,WSDL version 420,2013-01-16 15:14:00,
2013-01-16 10:19:00,25.6,18.7,28.79,West,265,0.0,0.0,71,0.00,,,0.00,WSDL version 420,2013-01-16 15:19:00,
2013-01-16 10:24:00,25.9,18.7,28.79,West,270,0.0,0.0,70,0.00,,,0.00,WSDL version 420,2013-01-16 15:24:00,
2013-01-16 10:30:00,26.1,18.5,28.82,West,270,0.0,0.0,69,0.00,,,0.00,WSDL version 420,2013-01-16 15:30:00,
2013-01-16 10:35:00,26.4,18.5,28.82,WSW,257,0.0,0.0,68,0.00,,,0.00,WSDL version 420,2013-01-16 15:35:00,
2013-01-16 10:41:00,26.8,18.1,28.79,West,270,0.0,0.0,65,0.00,,,0.00,WSDL version 420,2013-01-16 15:41:00,
2013-01-16 10:47:00,27.0,17.6,28.79,WSW,257,0.0,2.2,63,0.00,,,0.00,WSDL version 420,2013-01-16 15:47:00,
2013-01-16 10:52:00,27.1,17.0,28.79,SSW,197,0.0,2.2,62,0.00,,,0.00,WSDL version 420,2013-01-16 15:52:00,
2013-01-16 10:58:00,27.2,17.0,28.82,ENE,78,0.0,0.0,61,0.00,,,0.00,WSDL version 420,2013-01-16 15:58:00,
2013-01-16 11:04:00,27.4,17.0,28.82,SW,225,0.0,0.0,60,0.00,,,0.00,WSDL version 420,2013-01-16 16:04:00,
2013-01-16 11:10:00,27.6,16.8,28.82,South,180,0.0,0.0,59,0.00,,,0.00,WSDL version 420,2013-01-16 16:10:00,
2013-01-16 11:15:00,27.8,16.7,28.79,South,180,0.0,0.0,59,0.00,,,0.00,WSDL version 420,2013-01-16 16:15:00,
2013-01-16 11:20:00,28.0,16.9,28.79,South,174,0.0,0.0,59,0.00,,,0.00,WSDL version 420,2013-01-16 16:20:00,
2013-01-16 11:26:00,28.2,16.6,28.82,SW,235,0.0,2.2,57,0.00,,,0.00,WSDL version 420,2013-01-16 16:26:00,
2013-01-16 11:31:00,28.3,16.3,28.82,SSW,205,0.0,2.2,56,0.00,,,0.00,WSDL version 420,2013-01-16 16:31:00,
2013-01-16 11:36:00,28.6,16.4,28.82,SSW,210,0.0,3.1,56,0.00,,,0.00,WSDL version 420,2013-01-16 16:36:00,
2013-01-16 11:41:00,28.7,16.3,28.82,SW,217,0.0,3.1,55,0.00,,,0.00,WSDL version 420,2013-01-16 16:41:00,
2013-01-16 11:46:00,28.8,16.1,28.82,SSW,211,0.0,0.0,54,0.00,,,0.00,WSDL version 420,2013-01-16 16:46:00,
2013-01-16 11:51:00,28.9,15.9,28.82,SSE,158,0.0,0.0,54,0.00,,,0.00,WSDL version 420,2013-01-16 16:51:00,
2013-01-16 11:57:00,28.8,15.5,28.82,SW,231,0.0,5.8,53,0.00,,,0.00,WSDL version 420,2013-01-16 16:57:00,
2013-01-16 12:03:00,28.8,15.5,28.82,SW,235,0.0,5.8,53,0.00,,,0.00,WSDL version 420,2013-01-16 17:03:00,
2013-01-16 12:09:00,28.7,15.2,28.82,South,190,0.0,3.1,52,0.00,,,0.00,WSDL version 420,2013-01-16 17:09:00,
2013-01-16 12:14:00,28.8,15.1,28.82,SW,215,0.0,3.1,52,0.00,,,0.00,WSDL version 420,2013-01-16 17:14:00,
2013-01-16 12:19:00,28.8,15.1,28.82,NNE,16,0.0,0.0,52,0.00,,,0.00,WSDL version 420,2013-01-16 17:19:00,
2013-01-16 12:24:00,28.9,15.0,28.82,SSE,150,0.0,0.0,51,0.00,,,0.00,WSDL version 420,2013-01-16 17:24:00,
2013-01-16 12:30:00,29.0,14.9,28.79,ENE,68,0.0,0.0,51,0.00,,,0.00,WSDL version 420,2013-01-16 17:30:00,
2013-01-16 12:36:00,29.0,14.9,28.79,SE,145,0.0,0.0,51,0.00,,,0.00,WSDL version 420,2013-01-16 17:36:00,
2013-01-16 12:41:00,29.2,15.1,28.82,ESE,103,0.0,0.0,51,0.00,,,0.00,WSDL version 420,2013-01-16 17:41:00,
2013-01-16 12:46:00,29.4,15.2,28.82,SSW,197,0.0,0.0,51,0.00,,,0.00,WSDL version 420,2013-01-16 17:46:00,
2013-01-16 12:52:00,29.5,15.1,28.82,SSW,208,0.0,0.0,50,0.00,,,0.00,WSDL version 420,2013-01-16 17:52:00,
2013-01-16 12:57:00,29.6,14.9,28.79,WSW,243,0.0,2.7,49,0.00,,,0.00,WSDL version 420,2013-01-16 17:57:00,
2013-01-16 13:02:00,29.7,15.0,28.79,SSW,208,0.0,2.7,49,0.00,,,0.00,WSDL version 420,2013-01-16 18:02:00,
2013-01-16 13:07:00,29.8,14.8,28.79,South,188,0.0,0.0,49,0.00,,,0.00,WSDL version 420,2013-01-16 18:07:00,
2013-01-16 13:12:00,30.0,14.8,28.79,SSE,161,0.0,0.0,48,0.00,,,0.00,WSDL version 420,2013-01-16 18:12:00,
2013-01-16 13:17:00,30.3,14.8,28.79,West,265,0.0,0.0,48,0.00,,,0.00,WSDL version 420,2013-01-16 18:17:00,
2013-01-16 13:22:00,30.3,14.5,28.79,SE,135,0.0,0.0,46,0.00,,,0.00,WSDL version 420,2013-01-16 18:22:00,
2013-01-16 13:28:00,30.1,13.8,28.79,SSW,213,0.0,0.0,46,0.00,,,0.00,WSDL version 420,2013-01-16 18:28:00,
2013-01-16 13:33:00,29.7,13.4,28.79,South,188,0.0,0.0,46,0.00,,,0.00,WSDL version 420,2013-01-16 18:33:00,
2013-01-16 13:38:00,29.4,13.2,28.79,West,260,0.0,2.2,46,0.00,,,0.00,WSDL version 420,2013-01-16 18:38:00,
2013-01-16 13:44:00,29.4,13.4,28.79,NE,55,0.0,2.2,47,0.00,,,0.00,WSDL version 420,2013-01-16 18:44:00,
2013-01-16 13:50:00,29.7,13.8,28.79,SSW,205,0.0,0.0,47,0.00,,,0.00,WSDL version 420,2013-01-16 18:50:00,
2013-01-16 13:55:00,29.9,14.0,28.79,SE,130,0.0,0.0,47,0.00,,,0.00,WSDL version 420,2013-01-16 18:55:00,
2013-01-16 14:01:00,30.1,13.8,28.79,SW,219,0.0,0.0,46,0.00,,,0.00,WSDL version 420,2013-01-16 19:01:00,
2013-01-16 14:07:00,30.1,13.8,28.79,South,186,0.0,0.0,46,0.00,,,0.00,WSDL version 420,2013-01-16 19:07:00,
2013-01-16 14:13:00,30.5,14.2,28.79,ESE,113,0.0,0.0,46,0.00,,,0.00,WSDL version 420,2013-01-16 19:13:00,
2013-01-16 14:19:00,30.5,13.8,28.79,West,273,0.0,0.0,45,0.00,,,0.00,WSDL version 420,2013-01-16 19:19:00,
2013-01-16 14:24:00,30.3,13.6,28.79,SW,225,0.0,0.0,45,0.00,,,0.00,WSDL version 420,2013-01-16 19:24:00,
2013-01-16 14:29:00,30.1,12.9,28.79,East,90,0.0,3.1,44,0.00,,,0.00,WSDL version 420,2013-01-16 19:29:00,
2013-01-16 14:34:00,30.3,13.1,28.79,West,270,0.0,3.1,44,0.00,,,0.00,WSDL version 420,2013-01-16 19:34:00,
2013-01-16 14:39:00,30.1,12.9,28.79,SSW,210,0.0,0.0,44,0.00,,,0.00,WSDL version 420,2013-01-16 19:39:00,
2013-01-16 14:45:00,30.1,12.9,28.79,West,280,0.0,0.0,44,0.00,,,0.00,WSDL version 420,2013-01-16 19:45:00,
2013-01-16 14:51:00,30.0,12.8,28.79,SW,222,0.0,0.0,44,0.00,,,0.00,WSDL version 420,2013-01-16 19:51:00,
2013-01-16 14:57:00,29.8,13.2,28.79,WNW,290,0.0,0.0,46,0.00,,,0.00,WSDL version 420,2013-01-16 19:57:00,
2013-01-16 15:03:00,29.8,13.4,28.79,South,188,0.0,0.0,45,0.00,,,0.00,WSDL version 420,2013-01-16 20:03:00,
2013-01-16 15:08:00,29.9,12.7,28.79,SSW,200,0.0,0.0,44,0.00,,,0.00,WSDL version 420,2013-01-16 20:08:00,
2013-01-16 15:14:00,29.7,12.1,28.79,SE,145,0.0,0.0,43,0.00,,,0.00,WSDL version 420,2013-01-16 20:14:00,
2013-01-16 15:19:00,29.7,11.8,28.79,SW,231,0.0,0.0,43,0.00,,,0.00,WSDL version 420,2013-01-16 20:19:00,
2013-01-16 15:25:00,29.8,12.1,28.79,SW,222,0.0,0.0,43,0.00,,,0.00,WSDL version 420,2013-01-16 20:25:00,
2013-01-16 15:31:00,29.8,12.6,28.79,SW,231,0.0,0.0,44,0.00,,,0.00,WSDL version 420,2013-01-16 20:31:00,
2013-01-16 15:36:00,29.8,12.2,28.79,SW,231,0.0,0.0,42,0.00,,,0.00,WSDL version 420,2013-01-16 20:36:00,
2013-01-16 15:41:00,29.7,11.6,28.79,SW,214,0.0,0.0,42,0.00,,,0.00,WSDL version 420,2013-01-16 20:41:00,
2013-01-16 15:46:00,29.5,11.4,28.79,SSW,208,0.0,0.0,42,0.00,,,0.00,WSDL version 420,2013-01-16 20:46:00,
2013-01-16 15:51:00,29.5,11.4,28.79,South,188,0.0,0.0,42,0.00,,,0.00,WSDL version 420,2013-01-16 20:51:00,
2013-01-16 15:57:00,29.5,11.0,28.79,WNW,287,0.0,0.0,41,0.00,,,0.00,WSDL version 420,2013-01-16 20:57:00,
2013-01-16 16:02:00,29.5,11.0,28.79,SW,230,0.0,0.0,41,0.00,,,0.00,WSDL version 420,2013-01-16 21:02:00,
2013-01-16 16:07:00,29.4,10.8,28.79,South,180,0.0,0.0,41,0.00,,,0.00,WSDL version 420,2013-01-16 21:07:00,
2013-01-16 16:12:00,29.3,10.8,28.79,South,190,0.0,0.0,41,0.00,,,0.00,WSDL version 420,2013-01-16 21:12:00,
2013-01-16 16:18:00,29.3,10.8,28.79,SW,222,0.0,0.0,41,0.00,,,0.00,WSDL version 420,2013-01-16 21:18:00,
2013-01-16 16:24:00,29.3,10.8,28.79,SSW,198,0.0,0.0,41,0.00,,,0.00,WSDL version 420,2013-01-16 21:24:00,
2013-01-16 16:29:00,29.3,10.8,28.79,SSW,208,0.0,0.0,41,0.00,,,0.00,WSDL version 420,2013-01-16 21:29:00,
2013-01-16 16:34:00,29.2,10.7,28.79,SW,228,0.0,0.0,41,0.00,,,0.00,WSDL version 420,2013-01-16 21:34:00,
2013-01-16 16:39:00,29.2,10.6,28.79,NW,309,0.0,0.0,41,0.00,,,0.00,WSDL version 420,2013-01-16 21:39:00,
2013-01-16 16:44:00,29.1,10.4,28.79,WSW,250,0.0,0.0,40,0.00,,,0.00,WSDL version 420,2013-01-16 21:44:00,
2013-01-16 16:50:00,28.9,10.4,28.79,SW,228,0.0,0.0,41,0.00,,,0.00,WSDL version 420,2013-01-16 21:50:00,
2013-01-16 16:56:00,28.8,9.8,28.79,SW,236,0.0,0.0,40,0.00,,,0.00,WSDL version 420,2013-01-16 21:56:00,
2013-01-16 17:01:00,28.8,9.8,28.79,WSW,242,0.0,0.0,40,0.00,,,0.00,WSDL version 420,2013-01-16 22:01:00,
2013-01-16 17:06:00,28.6,10.1,28.79,SW,225,0.0,0.0,41,0.00,,,0.00,WSDL version 420,2013-01-16 22:06:00,
2013-01-16 17:12:00,28.6,10.1,28.79,WSW,248,0.0,0.0,41,0.00,,,0.00,WSDL version 420,2013-01-16 22:12:00,
2013-01-16 17:17:00,28.5,10.0,28.79,SW,220,0.0,0.0,41,0.00,,,0.00,WSDL version 420,2013-01-16 22:17:00,
2013-01-16 17:22:00,28.4,10.0,28.79,SW,225,0.0,0.0,41,0.00,,,0.00,WSDL version 420,2013-01-16 22:22:00,
2013-01-16 17:28:00,28.3,9.8,28.79,SW,228,0.0,0.0,41,0.00,,,0.00,WSDL version 420,2013-01-16 22:28:00,
2013-01-16 17:33:00,28.3,9.9,28.79,SW,235,0.0,2.2,41,0.00,,,0.00,WSDL version 420,2013-01-16 22:33:00,
2013-01-16 17:38:00,28.4,10.0,28.79,West,275,0.0,2.2,41,0.00,,,0.00,WSDL version 420,2013-01-16 22:38:00,
2013-01-16 17:43:00,28.3,9.9,28.79,WSW,243,0.0,0.0,41,0.00,,,0.00,WSDL version 420,2013-01-16 22:43:00,
2013-01-16 17:48:00,28.3,9.8,28.79,SW,225,0.0,0.0,41,0.00,,,0.00,WSDL version 420,2013-01-16 22:48:00,
2013-01-16 17:53:00,28.3,9.8,28.79,West,263,0.0,0.0,41,0.00,,,0.00,WSDL version 420,2013-01-16 22:53:00,
2013-01-16 17:58:00,28.3,10.3,28.82,West,281,0.0,0.0,42,0.00,,,0.00,WSDL version 420,2013-01-16 22:58:00,
2013-01-16 18:04:00,28.1,10.1,28.82,SSE,149,0.0,0.0,42,0.00,,,0.00,WSDL version 420,2013-01-16 23:04:00,
2013-01-16 18:10:00,28.1,10.1,28.82,SW,228,0.0,0.0,42,0.00,,,0.00,WSDL version 420,2013-01-16 23:10:00,
2013-01-16 18:15:00,28.1,10.1,28.82,WSW,250,0.0,0.0,42,0.00,,,0.00,WSDL version 420,2013-01-16 23:15:00,
2013-01-16 18:20:00,28.1,10.1,28.82,WSW,245,0.0,0.0,42,0.00,,,0.00,WSDL version 420,2013-01-16 23:20:00,
2013-01-16 18:26:00,28.1,10.1,28.82,SW,225,0.0,0.0,42,0.00,,,0.00,WSDL version 420,2013-01-16 23:26:00,
2013-01-16 18:31:00,28.1,10.1,28.82,SW,217,0.0,0.0,42,0.00,,,0.00,WSDL version 420,2013-01-16 23:31:00,
2013-01-16 18:36:00,28.1,10.0,28.82,WSW,238,0.0,0.0,41,0.00,,,0.00,WSDL version 420,2013-01-16 23:36:00,
2013-01-16 18:42:00,28.3,9.8,28.82,SW,228,0.0,2.2,41,0.00,,,0.00,WSDL version 420,2013-01-16 23:42:00,
2013-01-16 18:48:00,28.3,9.8,28.82,SW,220,0.0,2.2,41,0.00,,,0.00,WSDL version 420,2013-01-16 23:48:00,
2013-01-16 18:54:00,28.3,9.8,28.82,SW,235,0.0,0.0,41,0.00,,,0.00,WSDL version 420,2013-01-16 23:54:00,
2013-01-16 19:00:00,28.3,9.8,28.82,SW,222,0.0,0.0,41,0.00,,,0.00,WSDL version 420,2013-01-17 00:00:00,
2013-01-16 19:05:00,28.3,9.8,28.82,SSW,208,0.0,0.0,41,0.00,,,0.00,WSDL version 420,2013-01-17 00:05:00,
2013-01-16 19:11:00,28.3,9.8,28.85,SW,222,0.0,0.0,41,0.00,,,0.00,WSDL version 420,2013-01-17 00:11:00,
2013-01-16 19:16:00,28.3,9.8,28.85,SW,220,0.0,0.0,41,0.00,,,0.00,WSDL version 420,2013-01-17 00:16:00,
2013-01-16 19:22:00,28.3,9.8,28.85,WSW,240,0.0,0.0,41,0.00,,,0.00,WSDL version 420,2013-01-17 00:22:00,
2013-01-16 19:27:00,28.3,9.8,28.82,WSW,238,0.0,0.0,41,0.00,,,0.00,WSDL version 420,2013-01-17 00:27:00,
2013-01-16 19:32:00,28.2,9.8,28.82,SW,214,0.0,2.2,41,0.00,,,0.00,WSDL version 420,2013-01-17 00:32:00,
2013-01-16 19:37:00,28.2,9.8,28.82,SW,225,0.0,2.2,41,0.00,,,0.00,WSDL version 420,2013-01-17 00:37:00,
2013-01-16 19:42:00,28.1,9.8,28.82,WSW,253,0.0,0.0,42,0.00,,,0.00,WSDL version 420,2013-01-17 00:42:00,
2013-01-16 19:47:00,28.1,10.1,28.82,SW,236,0.0,0.0,42,0.00,,,0.00,WSDL version 420,2013-01-17 00:47:00,
2013-01-16 19:52:00,28.1,10.1,28.82,West,273,0.0,0.0,42,0.00,,,0.00,WSDL version 420,2013-01-17 00:52:00,
2013-01-16 19:58:00,28.1,10.1,28.82,WSW,248,0.0,2.7,42,0.00,,,0.00,WSDL version 420,2013-01-17 00:58:00,
2013-01-16 20:03:00,28.1,10.1,28.82,WSW,248,0.0,2.7,42,0.00,,,0.00,WSDL version 420,2013-01-17 01:03:00,
2013-01-16 20:08:00,28.1,10.1,28.82,WSW,242,0.0,0.0,42,0.00,,,0.00,WSDL version 420,2013-01-17 01:08:00,
2013-01-16 20:13:00,28.1,10.1,28.82,SW,219,0.0,2.2,42,0.00,,,0.00,WSDL version 420,2013-01-17 01:13:00,
2013-01-16 20:18:00,28.1,10.1,28.82,SW,218,0.0,2.2,42,0.00,,,0.00,WSDL version 420,2013-01-17 01:18:00,
2013-01-16 20:24:00,28.1,10.2,28.82,SSW,208,0.0,0.0,42,0.00,,,0.00,WSDL version 420,2013-01-17 01:24:00,
2013-01-16 20:29:00,28.1,10.6,28.82,SW,235,0.0,0.0,43,0.00,,,0.00,WSDL version 420,2013-01-17 01:29:00,
2013-01-16 20:34:00,28.1,10.6,28.82,South,177,0.0,2.7,43,0.00,,,0.00,WSDL version 420,2013-01-17 01:34:00,
2013-01-16 20:40:00,28.1,10.6,28.82,SW,215,0.0,2.2,43,0.00,,,0.00,WSDL version 420,2013-01-17 01:40:00,
2013-01-16 20:46:00,28.3,10.4,28.82,SSW,208,0.0,3.1,42,0.00,,,0.00,WSDL version 420,2013-01-17 01:46:00,
2013-01-16 20:51:00,28.3,10.4,28.82,SW,218,0.0,3.1,43,0.00,,,0.00,WSDL version 420,2013-01-17 01:51:00,
2013-01-16 20:56:00,28.3,10.4,28.82,SW,222,0.0,0.0,43,0.00,,,0.00,WSDL version 420,2013-01-17 01:56:00,
2013-01-16 21:02:00,28.1,10.6,28.82,West,264,0.0,0.0,43,0.00,,,0.00,WSDL version 420,2013-01-17 02:02:00,
2013-01-16 21:07:00,28.1,10.6,28.82,West,264,0.0,0.0,43,0.00,,,0.00,WSDL version 420,2013-01-17 02:07:00,
2013-01-16 21:12:00,28.1,10.6,28.82,SW,228,0.0,3.6,43,0.00,,,0.00,WSDL version 420,2013-01-17 02:12:00,
2013-01-16 21:18:00,28.1,10.6,28.82,SW,223,0.0,0.0,43,0.00,,,0.00,WSDL version 420,2013-01-17 02:18:00,
2013-01-16 21:24:00,28.1,10.6,28.82,SW,222,0.0,0.0,43,0.00,,,0.00,WSDL version 420,2013-01-17 02:24:00,
2013-01-16 21:29:00,28.1,10.6,28.82,South,188,0.0,0.0,43,0.00,,,0.00,WSDL version 420,2013-01-17 02:29:00,
2013-01-16 21:34:00,28.3,11.1,28.82,SSW,208,0.0,0.0,44,0.00,,,0.00,WSDL version 420,2013-01-17 02:34:00,
2013-01-16 21:40:00,28.4,11.2,28.82,SW,222,0.0,0.0,44,0.00,,,0.00,WSDL version 420,2013-01-17 02:40:00,
2013-01-16 21:45:00,28.4,11.3,28.82,South,180,0.0,0.0,44,0.00,,,0.00,WSDL version 420,2013-01-17 02:45:00,
2013-01-16 21:51:00,28.6,11.3,28.82,South,188,0.0,0.0,43,0.00,,,0.00,WSDL version 420,2013-01-17 02:51:00,
2013-01-16 21:57:00,28.6,11.3,28.85,SSW,195,0.0,0.0,43,0.00,,,0.00,WSDL version 420,2013-01-17 02:57:00,
2013-01-16 22:02:00,28.6,11.1,28.85,SW,214,0.0,4.0,43,0.00,,,0.00,WSDL version 420,2013-01-17 03:02:00,
2013-01-16 22:07:00,28.8,11.2,28.85,SW,235,0.0,4.0,42,0.00,,,0.00,WSDL version 420,2013-01-17 03:07:00,
2013-01-16 22:12:00,28.8,10.8,28.85,SSE,153,0.0,0.0,42,0.00,,,0.00,WSDL version 420,2013-01-17 03:12:00,
2013-01-16 22:17:00,28.8,10.8,28.85,SW,228,0.0,2.7,42,0.00,,,0.00,WSDL version 420,2013-01-17 03:17:00,
2013-01-16 22:23:00,28.9,10.6,28.85,WNW,298,1.7,10.1,41,0.00,,,0.00,WSDL version 420,2013-01-17 03:23:00,
2013-01-16 22:29:00,29.0,10.5,28.85,WSW,258,0.0,10.1,41,0.00,,,0.00,WSDL version 420,2013-01-17 03:29:00,
2013-01-16 22:34:00,29.0,10.5,28.85,SSW,203,0.0,3.6,41,0.00,,,0.00,WSDL version 420,2013-01-17 03:34:00,
2013-01-16 22:39:00,29.0,10.5,28.85,West,262,0.0,2.7,41,0.00,,,0.00,WSDL version 420,2013-01-17 03:39:00,
2013-01-16 22:44:00,29.0,10.5,28.85,SW,231,0.0,0.0,41,0.00,,,0.00,WSDL version 420,2013-01-17 03:44:00,
2013-01-16 22:50:00,29.0,10.0,28.85,SSW,200,0.0,0.0,40,0.00,,,0.00,WSDL version 420,2013-01-17 03:50:00,
2013-01-16 22:56:00,29.0,10.2,28.85,South,183,0.0,0.0,40,0.00,,,0.00,WSDL version 420,2013-01-17 03:56:00,
2013-01-16 23:01:00,29.0,10.0,28.85,SW,233,0.0,2.7,40,0.00,,,0.00,WSDL version 420,2013-01-17 04:01:00,
2013-01-16 23:06:00,29.0,10.1,28.85,SW,222,0.0,3.6,41,0.00,,,0.00,WSDL version 420,2013-01-17 04:06:00,
2013-01-16 23:11:00,29.0,10.3,28.85,SW,223,0.0,3.6,41,0.00,,,0.00,WSDL version 420,2013-01-17 04:11:00,
2013-01-16 23:16:00,29.0,10.3,28.85,SSE,149,0.0,3.1,41,0.00,,,0.00,WSDL version 420,2013-01-17 04:16:00,
2013-01-16 23:22:00,29.0,10.5,28.85,SW,222,0.0,3.1,41,0.00,,,0.00,WSDL version 420,2013-01-17 04:22:00,
2013-01-16 23:27:00,29.0,10.5,28.85,NE,55,0.0,2.2,41,0.00,,,0.00,WSDL version 420,2013-01-17 04:27:00,
2013-01-16 23:32:00,28.8,10.3,28.85,SE,140,0.0,2.2,41,0.00,,,0.00,WSDL version 420,2013-01-17 04:32:00,
2013-01-16 23:38:00,28.8,10.3,28.85,West,275,0.0,0.0,41,0.00,,,0.00,WSDL version 420,2013-01-17 04:38:00,
2013-01-16 23:43:00,28.8,10.3,28.85,SSE,165,0.0,3.6,41,0.00,,,0.00,WSDL version 420,2013-01-17 04:43:00,
2013-01-16 23:48:00,28.8,10.3,28.85,WSW,250,0.0,3.6,41,0.00,,,0.00,WSDL version 420,2013-01-17 04:48:00,
2013-01-16 23:54:00,28.8,10.3,28.85,WSW,245,0.9,7.2,41,0.00,,,0.00,WSDL version 420,2013-01-17 04:54:00,
2013-01-16 23:59:00,28.8,10.4,28.85,SSE,152,0.0,7.2,42,0.00,,,0.00,WSDL version 420,2013-01-17 04:59:00,